CLARK SAT-1 (AMBITIOUS) (58613 NORAD) Tracking and Keplerian Element Data

This shows tracking and keplerian element data for the satellite.

Feedback or suggestion? Click here.




ElementValue
Catalog58613
NameCLARK SAT-1 (AMBITIOUS)
Epoch Orbit405
Epoch Day13.13420907
Epoch Year2024
RAAN7.968
Inclination51.6399
Eccentricity0.0007515
Argument of Perigee92.7271
Mean Anonmoly267.4581
Mean Motion15.55373848
Decay Rate0.00106399
L11 58613U 98067WE 24013.13420907 .00106399 00000+0 15206-2 0 9992
L22 58613 51.6399 7.9680 0007515 92.7271 267.4581 15.55373848 4055



Live tracking and technical data element details for CLARK SAT-1 (AMBITIOUS) (NORAD 58613). CLARK SAT-1 (AMBITIOUS) can be tracked NOW for your location showing map with azimuth and elevation plus other details from your city location.







IsCatalogInMostPopularTable: catalog: 58613, numindb: 70
Update: records affected: 1



GetName: 58613 CLARK SAT-1 (AMBITIOUS)

Hit Count: updated at: Fri, 14 Feb 2025 14:10:34 GMT